period_start,C,m1,H,J0,J1,J2,J3,J4,J5,JA,JB,JC,JD,JJ,JK,JN,#
2016-07-30 00:04:42,0.05,1.76,0.00,26.96,30.62,33.14,14.13,47.77,1000.49,2025.05,2773.02,2583.62,2910.07,600.22,579.06,26.41,0000 0000 0000 0000 000000
2016-07-30 00:09:43,0.04,1.76,0.00,26.98,30.64,33.17,14.05,47.74,1000.18,2025.00,2772.17,2582.96,2909.43,599.59,578.25,26.46,0000 0000 0000 0000 000000
2016-07-30 00:14:45,0.06,1.76,0.00,26.98,30.66,33.19,14.02,47.73,1000.06,2025.00,2771.20,2582.16,2908.73,599.85,578.24,26.51,0000 0000 0000 0000 000000
2016-07-30 00:19:46,0.06,1.77,0.00,27.01,30.68,33.20,14.02,47.56,1000.05,2025.00,2770.16,2581.44,2907.82,600.17,578.68,26.56,0000 0000 0000 0000 000000
2016-07-30 00:24:47,0.06,1.77,0.00,27.02,30.70,33.20,14.01,47.71,1000.03,2025.00,2768.91,2580.69,2906.89,600.15,578.60,26.62,0000 0000 0000 0000 000000
2016-07-30 00:29:49,0.07,1.77,0.00,27.07,30.72,33.22,13.99,47.69,1000.03,2025.00,2767.64,2579.77,2905.89,599.62,578.06,26.67,0000 0000 0000 0000 000000
2016-07-30 00:34:50,0.09,1.78,0.00,27.09,30.74,33.26,14.03,47.57,1000.02,2024.98,2765.97,2578.80,2904.76,599.91,578.20,26.72,0000 0000 0000 0000 000000
2016-07-30 00:39:51,0.08,1.78,0.00,27.10,30.75,33.26,14.06,47.69,1000.04,2024.91,2764.58,2577.84,2903.68,600.25,578.52,26.77,0000 0000 0000 0000 000000
2016-07-30 00:44:53,0.04,1.78,0.00,27.12,30.77,33.30,13.97,47.62,1000.12,2024.65,2763.25,2576.98,2902.65,599.50,577.82,26.82,0000 0000 0000 0000 000000
2016-07-30 00:49:54,0.07,1.79,0.00,27.14,30.80,33.31,14.02,47.65,1000.17,2024.62,2761.90,2576.10,2901.71,600.06,578.33,26.87,0000 0000 0000 0000 000000
2016-07-30 00:54:55,0.03,1.79,0.00,27.16,30.81,33.32,14.11,47.70,1000.18,2024.20,2760.61,2575.23,2900.66,600.54,578.69,26.92,0000 0000 0000 0000 000000
2016-07-30 00:59:56,0.06,1.79,0.00,27.19,30.83,33.32,14.08,47.62,1000.43,2024.06,2759.39,2574.33,2899.73,599.97,578.38,26.97,0000 0000 0000 0000 000000
2016-07-30 01:04:58,0.06,1.80,0.00,27.20,30.85,33.35,14.05,47.63,1000.45,2024.01,2758.20,2573.48,2898.77,600.37,578.69,27.02,0000 0000 0000 0000 000000
2016-07-30 01:09:59,0.03,1.80,0.00,27.23,30.87,33.36,14.12,47.70,1000.43,2024.01,2757.26,2572.94,2898.02,600.31,578.59,27.07,0000 0000 0000 0000 000000
2016-07-30 01:15:01,0.07,1.80,0.00,27.26,30.89,33.36,14.06,47.63,1000.35,2024.00,2756.28,2572.14,2897.23,600.13,578.33,27.12,0000 0000 0000 0000 000000
2016-07-30 01:20:02,0.05,1.80,0.00,27.27,30.91,33.39,14.06,47.40,1000.32,2024.00,2755.45,2571.61,2896.64,599.87,577.99,27.17,0000 0000 0000 0000 000000
2016-07-30 01:25:04,0.03,1.81,0.00,27.28,30.93,33.43,14.00,47.49,1000.10,2024.00,2754.62,2570.97,2896.01,599.95,577.97,27.22,0000 0000 0000 0000 000000
2016-07-30 01:30:05,0.06,1.81,0.00,27.31,30.95,33.44,14.02,47.57,1000.05,2023.99,2753.73,2570.20,2895.21,600.30,578.20,27.27,0000 0000 0000 0000 000000
2016-07-30 01:35:07,0.04,1.81,0.00,27.32,30.97,33.45,14.03,47.67,1000.03,2023.99,2752.87,2569.78,2894.52,600.09,577.92,27.32,0000 0000 0000 0000 000000
2016-07-30 01:40:08,0.06,1.81,0.00,27.35,30.99,33.47,13.95,47.45,1000.03,2023.97,2751.80,2568.98,2893.73,599.68,577.55,27.37,0000 0000 0000 0000 000000
2016-07-30 01:45:10,0.09,1.82,0.00,27.38,31.00,33.48,14.03,47.57,1000.02,2023.93,2750.45,2567.98,2892.56,600.03,577.77,27.42,0000 0000 0000 0000 000000
2016-07-30 01:50:11,0.06,1.82,0.00,27.39,31.02,33.52,14.01,47.52,1000.01,2023.74,2748.81,2566.89,2891.39,599.61,577.31,27.47,0000 0000 0000 0000 000000
2016-07-30 01:55:12,0.04,1.83,0.00,27.41,31.05,33.54,14.00,47.74,1000.02,2023.37,2747.41,2565.87,2890.25,600.18,577.88,27.52,0000 0000 0000 0000 000000
2016-07-30 02:00:14,0.05,1.83,0.00,27.44,31.07,33.55,14.01,47.78,1000.02,2023.15,2746.19,2565.03,2889.28,600.14,577.77,27.57,0000 0000 0000 0000 000000
2016-07-30 02:05:15,0.06,1.83,0.00,27.45,31.08,33.57,13.94,47.58,1000.01,2023.08,2745.12,2564.24,2888.42,599.21,576.92,27.62,0000 0000 0000 0000 000000
2016-07-30 02:10:16,0.06,1.83,0.00,27.47,31.11,33.58,14.07,47.65,1000.01,2023.02,2744.04,2563.46,2887.57,600.62,578.23,27.67,0000 0000 0000 0000 000000
2016-07-30 02:15:17,0.07,1.84,0.00,27.50,31.12,33.58,13.95,47.54,1000.01,2023.00,2742.87,2562.68,2886.65,599.52,577.06,27.72,0000 0000 0000 0000 000000
2016-07-30 02:20:19,0.05,1.84,0.00,27.52,31.15,33.59,14.01,47.54,1000.01,2023.00,2741.77,2561.92,2885.79,599.90,577.40,27.77,0000 0000 0000 0000 000000
2016-07-30 02:25:20,0.06,1.84,0.00,27.55,31.16,33.64,14.06,47.67,1000.01,2023.00,2740.79,2561.10,2885.01,600.39,577.76,27.82,0000 0000 0000 0000 000000
2016-07-30 02:30:21,0.05,1.85,0.00,27.57,31.19,33.65,13.97,47.59,1000.01,2022.99,2739.93,2560.59,2884.23,599.80,577.34,27.87,0000 0000 0000 0000 000000
2016-07-30 02:35:22,0.04,1.85,0.00,27.59,31.21,33.67,13.91,47.44,1000.01,2022.99,2739.02,2559.97,2883.65,599.39,576.86,27.92,0000 0000 0000 0000 000000
2016-07-30 02:40:23,0.05,1.85,0.00,27.62,31.22,33.68,13.99,47.52,1000.01,2022.95,2738.10,2559.17,2882.97,599.90,577.22,27.97,0000 0000 0000 0000 000000
2016-07-30 02:45:25,0.02,1.85,0.00,27.63,31.25,33.69,14.09,47.63,1000.01,2022.85,2737.35,2558.98,2882.17,600.36,577.55,28.02,0000 0000 0000 0000 000000
2016-07-30 02:50:26,-0.01,1.85,0.00,27.64,31.27,33.71,14.03,47.68,1000.01,2022.45,2736.83,2558.30,2881.82,600.11,577.29,28.07,0000 0000 0000 0000 000000
2016-07-30 02:55:27,0.01,1.85,0.00,27.67,31.29,33.76,14.06,47.57,1000.02,2022.15,2736.10,2558.00,2881.08,600.55,577.52,28.12,0000 0000 0000 0000 000000
2016-07-30 03:00:28,0.03,1.85,0.00,27.69,31.31,33.78,13.95,47.56,1000.02,2022.02,2735.77,2557.50,2880.84,599.82,576.92,28.17,0000 0000 0000 0000 000000
2016-07-30 03:05:29,0.03,1.86,0.00,27.73,31.33,33.78,14.02,47.58,1000.02,2022.00,2735.01,2557.00,2880.06,599.91,577.03,28.22,0000 0000 0000 0000 000000
2016-07-30 03:10:31,0.06,1.86,0.00,27.74,31.35,33.81,14.01,47.73,1000.03,2022.00,2734.27,2556.32,2879.51,599.84,576.92,28.27,0000 0000 0000 0000 000000
2016-07-30 03:15:32,0.04,1.86,0.00,27.76,31.37,33.83,14.06,47.62,1000.02,2022.00,2733.36,2555.73,2878.90,599.74,576.74,28.32,0000 0000 0000 0000 000000
2016-07-30 03:20:33,0.05,1.86,0.00,27.79,31.39,33.84,13.99,47.45,1000.03,2022.00,2732.30,2554.99,2878.06,599.89,576.88,28.37,0000 0000 0000 0000 000000
2016-07-30 03:25:34,0.07,1.87,0.00,27.82,31.41,33.85,14.01,47.46,1000.04,2021.99,2731.39,2554.16,2877.17,600.08,577.02,28.42,0000 0000 0000 0000 000000
2016-07-30 03:30:35,0.06,1.87,0.00,27.86,31.44,33.87,13.95,47.68,1000.02,2021.93,2730.34,2553.34,2876.19,599.62,576.54,28.47,0000 0000 0000 0000 000000
2016-07-30 03:35:37,0.04,1.87,0.00,27.87,31.46,33.91,13.96,47.38,1000.01,2021.79,2729.31,2552.66,2875.39,600.27,576.96,28.52,0000 0000 0000 0000 000000
2016-07-30 03:40:38,0.02,1.88,0.00,27.88,31.48,33.94,13.97,47.63,1000.01,2021.49,2728.28,2551.93,2874.50,599.63,576.51,28.57,0000 0000 0000 0000 000000
2016-07-30 03:45:39,0.03,1.88,0.00,27.90,31.51,33.96,14.05,47.58,1000.01,2021.21,2727.35,2551.08,2873.73,600.34,577.03,28.62,0000 0000 0000 0000 000000
2016-07-30 03:50:40,0.06,1.88,0.00,27.93,31.53,33.94,14.03,47.63,1000.01,2021.03,2726.26,2550.24,2872.78,600.32,576.93,28.67,0000 0000 0000 0000 000000
2016-07-30 03:55:42,0.05,1.88,0.00,27.97,31.56,34.00,13.90,47.48,1000.01,2021.00,2725.29,2549.62,2871.91,599.74,576.30,28.72,0000 0000 0000 0000 000000
2016-07-30 04:00:43,0.05,1.89,0.00,27.99,31.58,34.02,14.00,47.70,1000.01,2021.00,2724.36,2548.82,2871.02,600.44,576.89,28.77,0000 0000 0000 0000 000000
2016-07-30 04:05:44,0.06,1.89,0.00,28.01,31.60,34.05,13.96,47.45,1000.02,2021.00,2723.33,2548.02,2870.10,599.95,576.50,28.82,0000 0000 0000 0000 000000
2016-07-30 04:10:46,0.07,1.89,0.00,28.03,31.62,34.06,14.01,47.57,1000.01,2020.98,2722.37,2547.15,2869.22,599.86,576.58,28.87,0000 0000 0000 0000 000000
2016-07-30 04:15:47,0.06,1.90,0.00,28.06,31.65,34.10,14.07,47.69,1000.01,2020.89,2721.21,2546.31,2868.25,600.55,577.03,28.92,0000 0000 0000 0000 000000
2016-07-30 04:20:49,0.06,1.90,0.00,28.07,31.67,34.13,14.03,47.47,1000.01,2020.74,2720.05,2545.58,2867.26,600.20,576.70,28.97,0000 0000 0000 0000 000000
2016-07-30 04:25:50,0.01,1.90,0.00,28.09,31.70,34.13,13.96,47.49,1000.01,2020.26,2718.93,2544.76,2866.30,599.63,576.04,29.02,0000 0000 0000 0000 000000
2016-07-30 04:30:52,0.04,1.90,0.00,28.11,31.72,34.15,13.97,47.48,1000.01,2020.06,2717.87,2544.00,2865.38,600.09,576.66,29.07,0000 0000 0000 0000 000000
2016-07-30 04:35:53,0.07,1.91,0.00,28.14,31.75,34.20,14.02,47.55,1000.01,2020.01,2716.69,2543.15,2864.46,599.90,576.24,29.12,0000 0000 0000 0000 000000
2016-07-30 04:40:55,0.08,1.91,0.00,28.18,31.77,34.20,14.00,47.41,1000.01,2020.00,2715.52,2542.29,2863.50,600.10,576.34,29.17,0000 0000 0000 0000 000000
2016-07-30 04:45:56,0.07,1.91,0.00,28.20,31.79,34.21,13.97,47.46,999.97,2020.00,2714.25,2541.33,2862.37,599.59,575.63,29.22,0000 0000 0000 0000 000000
2016-07-30 04:50:57,0.07,1.92,0.00,28.23,31.81,34.23,13.98,47.62,1000.01,2020.00,2713.14,2540.38,2861.37,599.98,576.12,29.27,0000 0000 0000 0000 000000
2016-07-30 04:55:58,0.05,1.92,0.00,28.27,31.84,34.26,13.90,47.44,1000.01,2019.99,2712.26,2539.74,2860.55,599.68,575.80,29.33,0000 0000 0000 0000 000000
2016-07-30 05:01:00,0.05,1.92,0.00,28.29,31.87,34.28,13.98,47.42,1000.00,2019.95,2711.32,2538.93,2859.78,600.07,576.00,29.38,0000 0000 0000 0000 000000
2016-07-30 05:06:01,0.07,1.93,0.00,28.30,31.90,34.33,13.96,47.53,999.92,2019.91,2710.17,2538.05,2858.76,600.18,576.09,29.43,0000 0000 0000 0000 000000
2016-07-30 05:11:02,0.03,1.93,0.00,28.32,31.92,34.35,14.01,47.55,999.68,2019.58,2708.93,2537.14,2857.69,600.09,575.94,29.48,0000 0000 0000 0000 000000
2016-07-30 05:16:04,0.07,1.93,0.00,28.35,31.95,34.38,13.93,47.33,999.71,2019.09,2707.42,2535.85,2856.24,599.57,575.30,29.53,0000 0000 0000 0000 000000
2016-07-30 05:21:05,0.11,1.94,0.00,28.38,31.97,34.41,14.03,47.52,999.74,2019.01,2705.56,2534.54,2854.65,600.35,576.06,29.58,0000 0000 0000 0000 000000
2016-07-30 05:26:06,0.11,1.94,0.00,28.40,32.00,34.42,13.96,47.56,999.78,2019.00,2703.78,2533.11,2853.00,600.14,575.85,29.63,0000 0000 0000 0000 000000
2016-07-30 05:31:07,0.07,1.95,0.00,28.43,32.02,34.44,13.97,47.42,999.95,2018.99,2702.69,2532.05,2851.91,599.88,575.65,29.68,0000 0000 0000 0000 000000
2016-07-30 05:36:09,0.07,1.95,0.00,28.46,32.05,34.45,13.98,47.42,1000.02,2018.95,2701.44,2531.16,2850.89,599.85,575.54,29.73,0000 0000 0000 0000 000000
2016-07-30 05:41:10,-0.06,1.95,0.00,28.48,32.07,34.47,13.96,47.61,1000.01,2018.23,2701.64,2530.45,2850.24,600.21,575.86,29.78,0000 0000 0000 0000 000000
2016-07-30 05:46:11,0.01,1.95,0.00,28.52,32.10,34.49,13.88,47.48,1000.05,2018.00,2701.24,2530.01,2850.01,599.74,575.35,29.83,0000 0000 0000 0000 000000
2016-07-30 05:51:13,0.00,1.95,0.00,28.54,32.12,34.54,13.97,47.41,1000.13,2017.99,2701.00,2529.95,2849.95,600.26,575.83,29.88,0000 0000 0000 0000 000000
2016-07-30 05:56:14,0.02,1.95,0.00,28.57,32.14,34.57,13.97,47.56,1000.14,2017.93,2700.98,2529.54,2849.51,599.99,575.59,29.93,0000 0000 0000 0000 000000
2016-07-30 06:01:15,-0.01,1.95,0.00,28.59,32.15,34.57,13.95,47.69,1000.13,2017.56,2700.50,2529.04,2849.05,600.00,575.41,29.98,0000 0000 0000 0000 000000
2016-07-30 06:06:17,-0.02,1.95,0.00,28.59,32.17,34.59,13.94,47.50,1000.18,2017.22,2700.02,2529.00,2849.00,599.80,575.40,30.03,0000 0000 0000 0000 000000
2016-07-30 06:11:18,-0.01,1.95,0.00,28.61,32.19,34.62,13.99,47.45,1000.40,2017.08,2699.95,2528.97,2848.89,599.85,575.45,30.08,0000 0000 0000 0000 000000
2016-07-30 06:16:20,0.05,1.95,0.00,28.63,32.20,34.63,13.88,47.42,1000.50,2017.04,2699.24,2528.58,2848.22,599.61,575.32,30.13,0000 0000 0000 0000 000000
2016-07-30 06:21:21,0.02,1.95,0.00,28.65,32.22,34.64,14.01,47.37,1000.50,2017.01,2698.73,2528.02,2847.86,600.56,576.17,30.18,0000 0000 0000 0000 000000
2016-07-30 06:26:23,0.11,1.96,0.00,28.66,32.22,34.66,13.97,47.63,1000.50,2017.00,2697.02,2527.07,2846.55,600.19,575.83,30.23,0000 0000 0000 0000 000000
2016-07-30 06:31:24,0.10,1.96,0.00,28.67,32.25,34.67,13.97,47.82,1000.50,2017.00,2695.09,2525.81,2845.13,599.86,575.43,30.28,0000 0000 0000 0000 000000
2016-07-30 06:36:25,0.13,1.97,0.00,28.69,32.25,34.68,13.98,47.73,1000.38,2016.99,2692.99,2524.44,2843.56,599.86,575.31,30.33,0000 0000 0000 0000 000000
2016-07-30 06:41:27,0.01,1.97,0.00,28.68,32.27,34.71,14.03,47.58,1000.25,2016.97,2692.00,2523.97,2842.96,600.06,575.39,30.38,0000 0000 0000 0000 000000
2016-07-30 06:46:28,0.06,1.97,0.00,28.69,32.27,34.74,13.96,47.51,1000.19,2016.96,2691.32,2523.26,2842.27,599.86,575.21,30.43,0000 0000 0000 0000 000000
2016-07-30 06:51:29,0.00,1.98,0.00,28.71,32.30,34.73,13.89,47.58,1000.19,2016.77,2690.40,2522.89,2841.66,599.73,575.05,30.48,0000 0000 0000 0000 000000
2016-07-30 06:56:31,0.03,1.98,0.00,28.72,32.30,34.75,13.94,47.58,1000.46,2016.60,2689.97,2522.15,2841.03,599.85,575.30,30.53,0000 0000 0000 0000 000000
2016-07-30 07:01:32,-0.02,1.98,0.00,28.71,32.32,34.77,13.95,47.60,1000.50,2016.23,2689.26,2521.98,2840.88,599.95,575.42,30.58,0000 0000 0000 0000 000000
2016-07-30 07:06:33,0.06,1.98,0.00,28.70,32.32,34.79,13.89,47.55,1000.50,2016.03,2688.39,2521.22,2839.95,600.16,575.72,30.63,0000 0000 0000 0000 000000
2016-07-30 07:11:35,0.07,1.98,0.00,28.71,32.34,34.82,13.91,47.55,1000.50,2016.01,2687.10,2520.30,2839.05,599.64,575.24,30.68,0000 0000 0000 0000 000000
2016-07-30 07:16:36,0.04,1.99,0.00,28.71,32.35,34.81,13.98,47.97,1000.17,2016.00,2686.37,2519.99,2838.38,600.12,575.42,30.73,0000 0000 0000 0000 000000
2016-07-30 07:21:37,0.00,1.99,0.00,28.71,32.35,34.84,13.99,47.92,1000.23,2016.00,2686.00,2519.87,2838.01,599.96,575.31,30.78,0000 0000 0000 0000 000000
2016-07-30 07:26:38,0.02,1.99,0.00,28.71,32.37,34.84,14.00,47.84,1000.41,2016.00,2685.90,2519.35,2837.97,599.88,575.32,30.83,0000 0000 0000 0000 000000
2016-07-30 07:31:39,0.04,1.99,0.00,28.70,32.37,34.87,14.08,47.88,1000.46,2016.00,2685.19,2519.01,2837.38,600.04,575.52,30.88,0000 0000 0000 0000 000000
2016-07-30 07:36:40,0.00,1.99,0.00,28.69,32.37,34.87,14.02,47.77,1000.50,2016.00,2684.95,2518.92,2837.00,600.11,575.63,30.93,0000 0000 0000 0000 000000
2016-07-30 07:41:42,0.05,1.99,0.00,28.68,32.39,34.88,14.02,47.69,1000.50,2015.99,2684.33,2518.29,2836.77,600.29,575.88,30.98,0000 0000 0000 0000 000000
2016-07-30 07:46:43,0.01,1.99,0.00,28.68,32.40,34.91,13.98,47.70,1000.51,2015.99,2683.99,2518.01,2836.05,600.12,575.66,31.03,0000 0000 0000 0000 000000
2016-07-30 07:51:44,0.04,1.99,0.00,28.67,32.40,34.95,13.92,47.76,1000.48,2015.99,2683.21,2517.76,2835.80,599.69,575.26,31.08,0000 0000 0000 0000 000000
2016-07-30 07:56:45,0.03,2.00,0.00,28.66,32.40,34.95,14.02,47.99,1000.50,2015.98,2682.81,2517.08,2835.06,599.94,575.50,31.13,0000 0000 0000 0000 000000
2016-07-30 08:01:46,0.03,2.00,0.00,28.63,32.40,35.02,14.05,47.89,1000.48,2015.96,2682.01,2516.83,2834.51,600.26,575.89,31.18,0000 0000 0000 0000 000000
2016-07-30 08:06:47,0.04,2.00,0.00,28.63,32.40,35.00,13.99,48.08,1000.65,2015.93,2681.18,2516.11,2834.01,599.78,575.54,31.23,0000 0000 0000 0000 000000
2016-07-30 08:11:49,0.00,2.00,0.00,28.62,32.40,35.02,14.09,47.90,1001.01,2015.96,2681.00,2516.00,2833.97,600.37,576.26,31.28,0000 0000 0000 0000 000000
2016-07-30 08:16:50,0.00,2.00,0.00,28.61,32.41,35.05,14.05,47.92,1001.22,2015.95,2680.97,2516.00,2833.79,600.05,576.14,31.33,0000 0000 0000 0000 000000
2016-07-30 08:21:51,0.01,2.00,0.00,28.60,32.42,35.07,13.97,47.81,1001.48,2015.96,2680.83,2516.00,2833.50,599.96,576.13,31.38,0000 0000 0000 0000 000000
2016-07-30 08:26:52,0.01,2.00,0.00,28.59,32.42,35.14,13.98,48.01,1001.48,2015.96,2680.50,2515.99,2833.18,599.92,576.22,31.43,0000 0000 0000 0000 000000
2016-07-30 08:31:53,0.01,2.00,0.00,28.57,32.41,35.12,14.00,48.06,1001.38,2015.95,2680.09,2515.86,2833.05,600.27,576.47,31.48,0000 0000 0000 0000 000000
2016-07-30 08:36:54,0.14,2.01,0.00,28.56,32.41,35.17,13.94,48.28,1001.46,2015.92,2677.71,2514.27,2831.97,599.85,576.17,31.53,0000 0000 0000 0000 000000
2016-07-30 08:41:55,0.01,2.01,0.00,28.54,32.40,35.16,14.03,48.45,1001.46,2015.92,2677.05,2514.00,2831.41,600.10,576.46,31.58,0000 0000 0000 0000 000000
2016-07-30 08:46:56,0.01,2.01,0.00,28.53,32.40,35.21,14.04,48.29,1001.51,2015.89,2677.01,2514.00,2831.20,599.79,576.29,31.63,0000 0000 0000 0000 000000
2016-07-30 08:51:58,0.01,2.01,0.00,28.49,32.40,35.20,13.95,48.13,1001.84,2015.93,2677.00,2514.00,2831.12,599.55,576.46,31.68,0000 0000 0000 0000 000000
2016-07-30 08:56:59,0.00,2.01,0.00,28.49,32.40,35.20,14.00,48.01,1001.97,2015.95,2677.00,2514.00,2831.11,599.94,576.69,31.73,0000 0000 0000 0000 000000
2016-07-30 09:02:00,0.00,2.01,0.00,28.49,32.40,35.24,14.03,48.23,1002.07,2015.97,2677.00,2514.00,2831.15,600.16,577.00,31.78,0000 0000 0000 0000 000000
2016-07-30 09:07:01,-0.01,2.01,0.00,28.46,32.40,35.25,14.01,48.19,1002.15,2015.93,2677.00,2514.00,2831.09,600.02,576.95,31.83,0000 0000 0000 0000 000000
2016-07-30 09:12:03,0.00,2.01,0.00,28.43,32.39,35.24,14.04,48.24,1002.41,2015.96,2677.00,2514.00,2831.10,600.07,577.22,31.88,0000 0000 0000 0000 000000
2016-07-30 09:17:04,0.00,2.01,0.00,28.41,32.37,35.27,14.03,47.67,1002.47,2015.97,2676.97,2514.00,2831.01,600.00,577.18,31.93,0000 0000 0000 0000 000000
2016-07-30 09:22:05,0.00,2.01,0.00,28.41,32.37,35.25,14.06,47.71,1002.66,2015.95,2676.78,2513.98,2831.00,600.08,577.46,31.98,0000 0000 0000 0000 000000
2016-07-30 09:27:07,-0.00,2.01,0.00,28.39,32.37,35.25,14.06,47.82,1002.57,2015.95,2676.87,2513.99,2831.00,600.05,577.33,32.03,0000 0000 0000 0000 000000
2016-07-30 09:32:08,-0.01,2.01,0.00,28.38,32.35,35.25,14.05,47.74,1002.72,2015.91,2676.98,2513.99,2831.00,600.11,577.61,32.08,0000 0000 0000 0000 000000
2016-07-30 09:37:09,0.01,2.01,0.00,28.36,32.35,35.23,14.09,47.68,1002.81,2015.95,2676.99,2513.99,2831.00,599.89,577.37,32.13,0000 0000 0000 0000 000000
2016-07-30 09:42:11,0.00,2.01,0.00,28.34,32.34,35.22,13.94,47.60,1002.84,2015.97,2676.99,2513.99,2831.01,599.47,577.19,32.18,0000 0000 0000 0000 000000
2016-07-30 09:47:12,-0.00,2.01,0.00,28.32,32.32,35.22,14.07,47.63,1002.72,2015.97,2676.95,2513.99,2831.02,600.17,577.68,32.23,0000 0000 0000 0000 000000
2016-07-30 09:52:13,-0.00,2.01,0.00,28.28,32.32,35.20,14.08,47.55,1002.58,2015.98,2676.97,2513.99,2831.01,600.61,578.02,32.29,0000 0000 0000 0000 000000
2016-07-30 09:57:14,0.00,2.01,0.00,28.27,32.30,35.19,14.04,47.56,1002.95,2015.99,2676.98,2513.99,2831.03,600.38,578.08,32.34,0000 0000 0000 0000 000000
2016-07-30 10:02:16,0.00,2.01,0.00,28.25,32.30,35.16,14.01,47.42,1003.08,2015.99,2676.95,2513.99,2831.02,599.90,577.74,32.39,0000 0000 0000 0000 000000
2016-07-30 10:07:17,0.00,2.01,0.00,28.24,32.28,35.15,14.01,47.58,1003.43,2015.99,2676.97,2513.99,2831.04,600.10,578.15,32.44,0000 0000 0000 0000 000000
2016-07-30 10:12:18,0.00,2.01,0.00,28.23,32.27,35.13,14.11,47.53,1003.45,2015.99,2676.98,2513.99,2831.05,600.27,578.30,32.49,0000 0000 0000 0000 000000
2016-07-30 10:17:19,-0.00,2.01,0.00,28.22,32.25,35.14,14.05,47.49,1003.48,2015.99,2676.97,2513.99,2831.16,600.03,578.14,32.54,0000 0000 0000 0000 000000
2016-07-30 10:22:20,-0.01,2.01,0.00,28.18,32.25,35.12,14.09,47.57,1003.73,2015.99,2676.99,2513.99,2831.49,600.02,578.54,32.59,0000 0000 0000 0000 000000
2016-07-30 10:27:22,-0.00,2.01,0.00,28.17,32.23,35.13,14.12,47.67,1003.91,2015.99,2677.05,2514.01,2831.87,600.23,578.69,32.64,0000 0000 0000 0000 000000
2016-07-30 10:32:23,-0.00,2.01,0.00,28.16,32.22,35.10,14.10,47.61,1003.86,2015.99,2677.06,2514.00,2831.87,600.46,578.89,32.69,0000 0000 0000 0000 000000
2016-07-30 10:37:24,-0.01,2.01,0.00,28.15,32.20,35.09,14.11,47.67,1003.92,2015.99,2677.39,2514.01,2831.97,599.94,578.54,32.74,0000 0000 0000 0000 000000
2016-07-30 10:42:26,-0.00,2.01,0.00,28.13,32.20,35.07,14.08,47.59,1003.96,2015.99,2677.75,2514.03,2831.99,599.70,578.32,32.79,0000 0000 0000 0000 000000
2016-07-30 10:47:27,-0.01,2.01,0.00,28.11,32.17,35.05,14.07,47.48,1004.18,2015.99,2677.86,2514.13,2831.99,600.05,578.85,32.84,0000 0000 0000 0000 000000
2016-07-30 10:52:29,-0.01,2.01,0.00,28.09,32.16,35.03,14.06,47.70,1004.34,2015.99,2677.96,2514.56,2831.99,599.79,578.74,32.89,0000 0000 0000 0000 000000
2016-07-30 10:57:30,-0.00,2.01,0.00,28.08,32.15,35.03,14.07,47.56,1004.39,2015.99,2677.99,2514.87,2832.02,600.03,578.99,32.94,0000 0000 0000 0000 000000
2016-07-30 11:02:31,0.00,2.01,0.00,28.06,32.13,35.01,14.12,47.47,1004.41,2016.00,2677.98,2514.89,2832.02,600.01,578.94,32.99,0000 0000 0000 0000 000000
2016-07-30 11:07:32,-0.00,2.01,0.00,28.03,32.12,34.99,14.09,47.41,1004.53,2016.00,2677.99,2514.95,2832.08,599.93,579.11,33.04,0000 0000 0000 0000 000000
2016-07-30 11:12:34,-0.00,2.01,0.00,28.01,32.10,34.98,14.05,47.42,1004.87,2016.01,2678.00,2514.99,2832.39,599.93,579.27,33.09,0000 0000 0000 0000 000000
2016-07-30 11:17:35,-0.00,2.01,0.00,28.00,32.08,34.96,14.08,47.35,1004.90,2016.00,2678.02,2514.99,2832.70,599.97,579.35,33.14,0000 0000 0000 0000 000000
2016-07-30 11:22:36,0.00,2.01,0.00,27.99,32.07,34.92,14.06,47.41,1004.91,2016.02,2678.02,2514.99,2832.88,599.92,579.49,33.19,0000 0000 0000 0000 000000
2016-07-30 11:27:38,0.00,2.01,0.00,27.96,32.05,34.93,14.10,47.27,1004.92,2016.06,2678.02,2514.99,2832.92,600.15,579.61,33.25,0000 0000 0000 0000 000000
2016-07-30 11:32:39,0.01,2.01,0.00,27.92,32.03,34.90,14.06,47.48,1005.05,2016.22,2678.31,2515.03,2832.99,600.04,579.65,33.30,0000 0000 0000 0000 000000
2016-07-30 11:37:40,-0.01,2.01,0.00,27.92,32.01,34.90,14.12,47.51,1005.36,2016.18,2678.45,2515.02,2832.99,599.91,579.87,33.35,0000 0000 0000 0000 000000
2016-07-30 11:42:41,0.03,2.01,0.00,27.89,32.00,34.89,14.12,47.33,1005.39,2016.61,2678.87,2515.25,2832.99,600.09,579.95,33.40,0000 0000 0000 0000 000000
2016-07-30 11:47:43,-0.00,2.01,0.00,27.86,31.97,34.86,14.12,47.47,1005.37,2016.81,2678.97,2515.69,2833.00,599.98,579.99,33.45,0000 0000 0000 0000 000000
2016-07-30 11:52:44,0.00,2.01,0.00,27.84,31.96,34.83,14.09,47.39,1005.35,2016.94,2678.99,2515.92,2833.14,599.88,579.91,33.50,0000 0000 0000 0000 000000
2016-07-30 11:57:46,-0.00,2.01,0.00,27.80,31.94,34.82,14.15,47.44,1005.39,2016.97,2678.99,2515.98,2833.41,600.14,580.13,33.55,0000 0000 0000 0000 000000
2016-07-30 12:02:47,-0.00,2.01,0.00,27.79,31.92,34.80,14.08,47.36,1005.39,2016.98,2678.99,2515.99,2833.68,599.86,579.93,33.60,0000 0000 0000 0000 000000
2016-07-30 12:07:48,-0.00,2.01,0.00,27.77,31.90,34.79,14.16,47.42,1005.39,2016.99,2679.00,2515.99,2833.89,599.85,579.96,33.65,0000 0000 0000 0000 000000
2016-07-30 12:12:49,0.00,2.01,0.00,27.75,31.87,34.77,14.13,47.38,1005.40,2016.99,2679.03,2515.99,2833.97,600.08,580.22,33.70,0000 0000 0000 0000 000000
2016-07-30 12:17:51,-0.00,2.01,0.00,27.73,31.86,34.75,14.14,47.46,1005.62,2016.99,2679.18,2516.00,2833.99,599.93,580.21,33.75,0000 0000 0000 0000 000000
2016-07-30 12:22:52,-0.00,2.01,0.00,27.69,31.83,34.73,14.14,47.60,1005.87,2016.99,2679.36,2516.01,2833.99,600.16,580.67,33.80,0000 0000 0000 0000 000000
2016-07-30 12:27:53,-0.01,2.01,0.00,27.67,31.81,34.70,14.16,47.52,1005.88,2016.99,2679.60,2516.05,2833.99,600.14,580.70,33.85,0000 0000 0000 0000 000000
2016-07-30 12:32:54,-0.01,2.01,0.00,27.64,31.79,34.67,14.12,47.54,1005.88,2017.00,2679.72,2516.19,2834.00,599.96,580.56,33.90,0000 0000 0000 0000 000000
2016-07-30 12:37:55,0.03,2.01,0.00,27.62,31.77,34.66,14.16,47.58,1005.88,2017.02,2679.09,2516.04,2833.80,600.12,580.93,33.95,0000 0000 0000 0000 000000
2016-07-30 12:42:57,0.08,2.01,0.00,27.59,31.75,34.63,14.13,47.58,1005.90,2017.08,2677.95,2515.11,2832.89,600.07,580.87,34.00,0000 0000 0000 0000 000000
2016-07-30 12:47:58,0.36,2.02,0.00,27.56,31.72,34.59,14.18,47.60,1005.93,2017.14,2674.32,2512.28,2829.70,600.20,581.01,34.05,0000 0000 0000 0000 000000
2016-07-30 12:52:59,0.57,2.05,0.00,27.56,31.70,34.57,14.13,47.63,1006.00,2017.33,2665.96,2505.79,2822.64,600.14,581.00,34.10,0000 0000 0000 0000 000000
2016-07-30 12:58:00,0.22,2.07,0.00,27.52,31.67,34.55,14.18,47.76,1006.32,2017.60,2661.63,2502.55,2819.16,600.01,581.20,34.16,0000 0000 0000 0000 000000